#timestamp,LO_Frequency,Hit,StdDev 
1542204015.1,286047001.6,N
1542204016.0,286047001.6,N
1542204035.8,286047002.0,N
1542204055.6,286047001.8,N
1542204075.5,286047002.6,N
1542204095.3,286047002.1,N
1542204115.1,286047001.7,N
1542204135.9,286047002.5,N
1542204155.7,286046999.7,N
1542204175.6,286047002.7,N
1542204195.4,286047000.2,N
1542204215.2,286047002.6,N
1542204235.1,286047002.7,N
1542204236.0,286047002.7,N
1542204255.8,286047000.9,N
1542204275.7,286047002.6,N
1542204295.5,286047002.6,N
1542204315.3,286047002.8,Y
1542204335.2,286046998.1,P
1542204355.9,286046999.9,N
1542204375.7,286047000.7,N
1542204395.6,286046999.0,N
1542204415.4,286046998.3,N
1542204435.2,286046998.7,N
1542204455.1,286047001.2,N
1542204456.0,286047001.2,N
1542204475.8,286046998.6,N
1542204495.7,286046998.8,N
1542204515.5,286046999.3,N
1542204535.3,286046999.3,N
1542204555.2,286046999.0,N
1542204575.9,286046998.7,N
1542204595.7,286046998.4,N
1542204615.6,286046998.3,N
1542204635.4,286047001.0,N
1542204655.2,286047000.9,N
1542204675.1,286047001.0,N
1542204676.0,286047001.0,N
1542204695.8,286047000.8,N
1542204715.7,286046998.1,N
1542204735.5,286046998.8,N
1542204755.3,286046998.3,N
1542204775.2,286047000.9,N
1542204795.0,286047001.2,N
1542204795.9,286047001.2,N
1542204815.7,286047000.8,N
1542204835.6,286046998.2,N
1542204855.4,286046998.5,N
1542204875.3,286046998.5,N
1542204895.1,286047001.1,N
1542204896.0,286047001.1,N
1542204915.8,286047000.2,N
1542204935.7,286047000.5,N
1542204955.5,286047000.2,N
1542204975.3,286047000.6,N
1542204995.2,286046998.2,N
1542205015.0,286047000.9,N
1542205015.9,286047000.9,N
1542205035.8,286047000.8,N
1542205055.6,286047001.0,N
1542205075.4,286047000.7,N
1542205095.3,286047000.3,N
1542205115.1,286047000.2,N
1542205135.9,286047000.0,N
1542205155.7,286047000.4,N
1542205175.5,286047001.0,N
1542205195.4,286047000.5,N
1542205215.2,286047000.1,N
1542205235.1,286047000.7,N
1542205236.0,286047000.7,N
1542205255.8,286047000.5,N
1542205275.6,286046999.8,N
1542205295.5,286047002.7,Y
1542205315.3,286047002.8,P
1542205335.1,286047000.0,N
1542205355.9,286047000.3,N
1542205375.7,286047001.1,N
1542205395.6,286047000.6,N
1542205415.4,286047000.3,N
1542205435.2,286046999.9,N
1542205455.1,286047000.6,N
1542205456.0,286047000.6,N
1542205475.8,286047001.2,N
1542205495.7,286047000.9,N
1542205515.5,286046998.8,N
1542205535.3,286046998.3,N
1542205555.2,286046999.0,N
1542205575.0,286046999.0,N
1542205575.9,286046999.0,N
1542205595.7,286046999.5,N
1542205615.6,286046996.9,N
1542205635.4,286046996.5,N
1542205655.3,286046996.6,N
1542205675.1,286047001.0,N
1542205676.0,286047001.0,N
1542205695.8,286046998.1,N
1542205715.7,286047000.1,N
1542205735.5,286047002.8,N
1542205755.4,286047002.8,N
1542205775.2,286047000.5,N
1542205795.0,286047000.6,N
1542205795.9,286047000.6,N
1542205815.8,286047000.7,N
1542205835.6,286046998.4,N
1542205855.4,286046997.0,N
1542205875.3,286046999.3,N
1542205895.1,286047000.5,N
1542205915.9,286047002.8,N
1542205935.7,286047000.7,N
1542205955.5,286047001.2,N
1542205975.4,286046998.7,N
1542205995.2,286046998.7,N
1542206015.1,286046998.9,N
1542206016.0,286046998.9,N
1542206035.8,286046999.1,N
1542206055.6,286046998.7,N
1542206075.5,286046998.9,N
1542206095.3,286046998.8,N
1542206115.1,286046996.8,N
1542206135.9,286046997.2,N
1542206155.7,286046995.2,N
1542206175.6,286046994.9,N
1542206195.4,286046995.9,N
1542206215.2,286046998.0,N
1542206235.1,286046997.3,N
1542206236.0,286046997.3,N
1542206255.8,286046995.1,N
1542206275.7,286046996.1,N
1542206295.5,286046997.6,N
1542206315.3,286046997.3,N
1542206335.2,286046999.3,N
1542206355.0,286046998.3,N
1542206355.9,286046998.3,N
1542206375.7,286046998.6,N
1542206395.6,286046999.2,N
1542206415.4,286046997.2,N
1542206435.3,286046998.0,N
1542206455.1,286046997.9,N
1542206456.0,286046997.9,N
1542206475.8,286046997.4,N
1542206495.7,286046996.8,N
1542206515.5,286046997.1,N
1542206535.4,286046998.0,N
1542206555.2,286046997.9,N
1542206575.0,286046993.4,Y
1542206575.9,286046993.4,P
1542206595.8,286046996.9,N
1542206615.6,286046999.0,N
1542206635.5,286046998.3,N
1542206655.3,286046998.9,N
1542206675.1,286046998.4,N
1542206695.9,286046999.2,N
1542206715.7,286046997.0,N
1542206735.5,286046995.4,N
1542206755.4,286046996.1,N
1542206775.2,286046995.5,N
1542206795.1,286046997.6,N
1542206796.0,286046997.6,N
1542206815.8,286046997.7,N
1542206835.6,286046999.4,N
1542206855.5,286046999.3,N
1542206875.3,286046997.0,N
1542206895.2,286046997.4,N
1542206915.9,286046997.1,N
1542206935.7,286046997.1,N
1542206955.6,286046999.6,N
1542206975.4,286046996.9,N
1542206995.2,286046997.7,N
1542207015.1,286046999.6,N
1542207016.0,286046999.6,N
1542207035.8,286046997.0,N
1542207055.7,286046996.8,N
1542207075.5,286046997.1,N
1542207095.3,286046997.8,N
1542207115.2,286046995.0,Y
1542207135.0,286046999.5,P
1542207135.9,286046999.5,N
1542207155.8,286046999.3,N
1542207175.6,286046999.3,N
1542207195.5,286046999.4,N
1542207215.3,286046999.2,N
1542207235.1,286046999.3,N
1542207255.9,286047000.9,N
1542207275.7,286047000.9,N
1542207295.5,286047001.1,N
1542207315.4,286046998.2,N
1542207335.2,286047000.7,N
1542207355.1,286046996.5,Y
1542207356.0,286046996.5,P
1542207375.8,286046996.5,N
1542207395.6,286046999.2,N
1542207415.5,286046996.9,N
1542207435.3,286046998.4,N
1542207455.2,286046998.2,N
1542207475.9,286047001.0,N
1542207495.7,286046998.6,N
1542207515.6,286046998.5,N
1542207535.4,286047000.8,N
1542207555.3,286047000.4,N
1542207575.1,286046998.1,N
1542207576.0,286046998.1,N
1542207595.8,286046998.2,N
